Location: Amanico Ergina Village
(37.7824°N, 122.4366°W)
Time: 07:54:33
(UTC+00:00)

Cosmos 1992 Rocket - Pass Details

Date: 29 October 2020
Orbit: 759 x 766 km, 74.0° (Epoch: 03 December)

Event Time Altitude Azimuth Distance (km) Brightness Sun altitude
Exits shadow 12:59:08 - 337° (NNW) 2,467 6.4 -19.0°
Reaches altitude 10° 12:59:35 10° 336° (NNW) 2,298 6.2 -18.9°
Maximum altitude 13:04:45 68° 255° (WSW) 821 3.9 -17.9°
Drops below altitude 10° 13:09:54 10° 173° (S) 2,288 6.6 -16.9°
Sets 13:12:16 0° 171° (S) 3,210 7.4 -16.4°
